Coleman, TX

9:31 PM CDT on July 29, 2016 (GMT -0500)
Coleman Municipal

Weather History for KCOM - November, 2012

Change the Weather History Date:

Friday, November 9, 2012

  Actual Average (KABI) Record (KABI)
Temperature  
Mean Temperature 70 °F 58 °F  
Max Temperature 82 °F 69 °F 90 °F (2006)
Min Temperature 58 °F 46 °F 27 °F (1956)
Degree Days  
Heating Degree Days 0 8  
Month to date heating degree days 65  
Since 1 July heating degree days 169  
Cooling Degree Days 5 1  
Month to date cooling degree days 11  
Year to date cooling degree days 2400  
Growing Degree Days 20 (Base 50)    
Moisture  
Dew Point 55 °F    
Average Humidity 61    
Maximum Humidity 89    
Minimum Humidity 36    
Precipitation  
Precipitation 0.00 in 0.05 in 1.12 in (1952)
Month to date precipitation 0.53  
Year to date precipitation 22.71  
Sea Level Pressure  
Sea Level Pressure 29.97 in    
Wind  
Wind Speed 12 mph (South)    
Max Wind Speed 23 mph    
Max Gust Speed 33 mph    
Visibility 10 miles    
Events      
T = Trace of Precipitation, MM = Missing Value Source: NWS Daily Summary

Daily Weather History Graph

Daily Weather History Graph

Search for Another Location

Airport or City:

Trip Planner

Search our weather history database for the weather conditions in past years. The results will help you decide how hot, cold, wet, or windy it might be!

Date:

Astronomy

Nov. 09, 2012 Rise Set
Actual Time 7:01 AM CST 5:41 PM CST
Civil Twilight 6:35 AM CST 6:06 PM CST
Nautical Twilight 6:06 AM CST 6:36 PM CST
Astronomical Twilight 5:37 AM CST 7:04 PM CST
Moon 2:18 AM CST (11/9) 2:41 PM CST (11/9)
Length of Visible Light 11h 31m
Length of Day
10h 40m
Waning Crescent, 23% of the Moon is Illuminated
Nov 9
Waning Crescent
Nov 13
New
Nov 20
First Quarter
Nov 28
Full
Dec 6
Last Quarter

Hourly Weather History & Observations

Time (CST) Temp. Heat Index Dew Point Humidity Pressure Visibility Wind Dir Wind Speed Gust Speed Precip Events Conditions
12:15 AM 63.9 °F - 49.3 °F 59% 29.99 in 10.0 mi South 11.5 mph - N/A   Clear
12:35 AM 63.7 °F - 50.4 °F 62% 29.99 in 10.0 mi South 12.7 mph - N/A   Clear
12:55 AM 63.9 °F - 52.0 °F 65% 29.99 in 10.0 mi SSW 9.2 mph - N/A   Clear
1:15 AM 63.9 °F - 53.2 °F 68% 30.00 in 10.0 mi South 8.1 mph - N/A   Clear
1:35 AM 63.7 °F - 54.1 °F 71% 29.99 in 10.0 mi South 9.2 mph - N/A   Clear
1:55 AM 63.1 °F - 54.9 °F 74% 29.99 in 10.0 mi South 9.2 mph - N/A   Clear
2:15 AM 63.0 °F - 55.8 °F 77% 29.99 in 10.0 mi South 9.2 mph - N/A   Clear
2:35 AM 62.6 °F - 56.3 °F 80% 29.99 in 10.0 mi South 10.4 mph - N/A   Clear
2:55 AM 62.6 °F - 56.5 °F 80% 29.99 in 10.0 mi South 11.5 mph - N/A   Clear
3:15 AM 62.6 °F - 56.8 °F 81% 29.99 in 10.0 mi South 9.2 mph - N/A   Clear
3:35 AM 62.2 °F - 57.0 °F 83% 29.99 in 10.0 mi South 10.4 mph - N/A   Clear
3:55 AM 62.1 °F - 57.2 °F 84% 29.98 in 10.0 mi South 10.4 mph - N/A   Clear
4:15 AM 61.3 °F - 56.8 °F 85% 29.99 in 10.0 mi South 9.2 mph - N/A   Clear
4:35 AM 60.8 °F - 56.8 °F 87% 29.99 in 10.0 mi South 8.1 mph - N/A   Clear
4:55 AM 60.6 °F - 56.7 °F 87% 29.98 in 10.0 mi South 6.9 mph - N/A   Clear
5:15 AM 60.3 °F - 56.5 °F 87% 29.98 in 10.0 mi South 8.1 mph - N/A   Clear
5:35 AM 60.3 °F - 56.5 °F 87% 29.98 in 10.0 mi South 6.9 mph - N/A   Clear
5:55 AM 60.3 °F - 56.3 °F 87% 29.99 in 10.0 mi South 5.8 mph - N/A   Clear
6:15 AM 59.9 °F - 56.3 °F 88% 29.98 in 10.0 mi South 8.1 mph - N/A   Clear
6:35 AM 59.9 °F - 55.9 °F 87% 29.99 in 10.0 mi South 8.1 mph - N/A   Clear
6:55 AM 59.5 °F - 55.8 °F 87% 29.99 in 10.0 mi South 5.8 mph - N/A   Clear
7:15 AM 58.8 °F - 55.6 °F 89% 29.99 in 10.0 mi South 4.6 mph - N/A   Clear
7:35 AM 59.9 °F - 56.1 °F 87% 30.00 in 10.0 mi South 5.8 mph - N/A   Clear
7:55 AM 61.3 °F - 56.8 °F 85% 30.01 in 10.0 mi SSW 8.1 mph - N/A   Clear
8:15 AM 62.6 °F - 57.4 °F 83% 30.01 in 10.0 mi South 10.4 mph - N/A   Clear
8:35 AM 64.4 °F - 58.1 °F 80% 30.01 in 10.0 mi SSW 10.4 mph 16.1 mph N/A   Clear
8:55 AM 66.0 °F - 58.6 °F 77% 30.03 in 10.0 mi SSW 10.4 mph - N/A   Clear
9:15 AM 67.5 °F - 59.0 °F 74% 30.03 in 10.0 mi SW 12.7 mph 18.4 mph N/A   Mostly Cloudy
9:35 AM 68.9 °F - 59.0 °F 71% 30.03 in 10.0 mi South 15.0 mph 24.2 mph N/A   Scattered Clouds
9:55 AM 70.3 °F - 58.8 °F 67% 30.03 in 10.0 mi South 20.7 mph 25.3 mph N/A   Scattered Clouds
10:15 AM 71.2 °F - 58.5 °F 64% 30.02 in 10.0 mi South 23.0 mph 32.2 mph N/A   Clear
10:35 AM 72.3 °F - 58.1 °F 61% 30.03 in 10.0 mi SSW 23.0 mph 28.8 mph N/A   Clear
10:55 AM 73.8 °F - 57.4 °F 56% 30.03 in 10.0 mi SSW 21.9 mph 32.2 mph N/A   Clear
11:15 AM 74.8 °F - 56.7 °F 53% 30.01 in 10.0 mi SSW 17.3 mph 23.0 mph N/A   Clear
11:35 AM 76.3 °F - 55.6 °F 49% 30.01 in 10.0 mi SSW 20.7 mph 27.6 mph N/A   Clear
11:55 AM 77.2 °F - 54.9 °F 46% 30.00 in 10.0 mi SSW 18.4 mph 28.8 mph N/A   Clear
12:15 PM 77.9 °F - 54.5 °F 44% 29.99 in 10.0 mi SSW 19.6 mph 27.6 mph N/A   Clear
12:35 PM 78.4 °F - 54.7 °F 44% 29.97 in 10.0 mi South 19.6 mph 26.5 mph N/A   Clear
12:55 PM 79.3 °F - 54.3 °F 42% 29.96 in 10.0 mi SSW 19.6 mph 33.4 mph N/A   Clear
1:15 PM 79.9 °F - 54.5 °F 41% 29.95 in 10.0 mi South 21.9 mph 25.3 mph N/A   Clear
1:35 PM 80.6 °F 80.4 °F 54.9 °F 41% 29.94 in 10.0 mi SSW 18.4 mph 24.2 mph N/A   Clear
1:55 PM 81.5 °F 81.0 °F 54.7 °F 40% 29.93 in 10.0 mi South 17.3 mph 24.2 mph N/A   Clear
2:15 PM 81.5 °F 80.9 °F 54.1 °F 39% 29.93 in 10.0 mi SSW 18.4 mph 23.0 mph N/A   Clear
2:35 PM 82.0 °F 81.3 °F 54.0 °F 38% 29.92 in 10.0 mi South 20.7 mph 27.6 mph N/A   Clear
2:55 PM 82.0 °F 81.3 °F 53.8 °F 38% 29.92 in 10.0 mi South 15.0 mph 25.3 mph N/A   Clear
3:15 PM 82.2 °F 81.3 °F 53.6 °F 37% 29.91 in 10.0 mi South 18.4 mph 25.3 mph N/A   Clear
3:35 PM 81.9 °F 81.0 °F 53.1 °F 37% 29.91 in 10.0 mi South 18.4 mph 25.3 mph N/A   Clear
3:55 PM 81.7 °F - 52.3 °F 36% 29.91 in 10.0 mi South 18.4 mph 26.5 mph N/A   Clear
4:15 PM 81.3 °F - 52.0 °F 36% 29.91 in 10.0 mi South 15.0 mph 26.5 mph N/A   Clear
4:35 PM 80.8 °F - 52.0 °F 37% 29.92 in 10.0 mi SSW 17.3 mph 23.0 mph N/A   Clear
4:55 PM 80.1 °F - 51.8 °F 37% 29.92 in 10.0 mi South 17.3 mph 24.2 mph N/A   Clear
5:15 PM 79.2 °F - 51.8 °F 38% 29.91 in 10.0 mi South 11.5 mph - N/A   Clear
5:35 PM 77.5 °F - 52.0 °F 41% 29.91 in 10.0 mi South 13.8 mph 19.6 mph N/A   Clear
5:55 PM 76.5 °F - 52.2 °F 43% 29.92 in 10.0 mi South 10.4 mph 16.1 mph N/A   Clear
6:15 PM 75.6 °F - 52.7 °F 45% 29.93 in 10.0 mi South 10.4 mph - N/A   Clear
6:35 PM 74.5 °F - 52.9 °F 47% 29.93 in 10.0 mi SSE 8.1 mph - N/A   Clear
6:55 PM 72.7 °F - 52.9 °F 50% 29.94 in 10.0 mi SSE 9.2 mph - N/A   Clear
7:15 PM 72.1 °F - 52.7 °F 50% 29.95 in 10.0 mi SSE 9.2 mph - N/A   Clear
7:55 PM 71.8 °F - 52.3 °F 50% 29.96 in 10.0 mi South 11.5 mph - N/A   Clear
8:15 PM 71.6 °F - 52.0 °F 50% 29.96 in 10.0 mi South 12.7 mph 17.3 mph N/A   Clear
8:35 PM 71.2 °F - 52.0 °F 51% 29.97 in 10.0 mi South 13.8 mph 18.4 mph N/A   Clear
8:55 PM 70.9 °F - 52.3 °F 52% 29.96 in 10.0 mi South 12.7 mph - N/A   Clear
9:15 PM 70.2 °F - 52.5 °F 53% 29.96 in 10.0 mi South 12.7 mph - N/A   Clear
9:35 PM 69.6 °F - 52.9 °F 55% 29.97 in 10.0 mi South 11.5 mph - N/A   Clear
9:55 PM 69.3 °F - 53.1 °F 56% 29.98 in 10.0 mi South 11.5 mph - N/A   Clear
10:15 PM 69.3 °F - 53.4 °F 57% 29.98 in 10.0 mi South 11.5 mph - N/A   Clear
10:35 PM 69.1 °F - 53.6 °F 58% 29.98 in 10.0 mi South 10.4 mph - N/A   Clear
10:55 PM 68.7 °F - 53.6 °F 58% 29.98 in 10.0 mi South 10.4 mph - N/A   Clear
11:15 PM 68.2 °F - 53.6 °F 60% 29.98 in 10.0 mi South 11.5 mph - N/A   Clear
11:35 PM 68.0 °F - 53.8 °F 60% 29.97 in 10.0 mi SSE 15.0 mph - N/A   Clear
11:55 PM 67.3 °F - 54.0 °F 62% 29.97 in 10.0 mi South 13.8 mph - N/A   Clear